This demonstration page uses our WeatherBlox Daily Observations layout. Learn more.

Left ArrowRight Arrow

Hourly Observations for March 6, 2021

Temp ( °F °C ) Dew Point ( °F °C ) Humidity (%) Winds ( mph kmh ) Pressure ( in mb ) Visibility ( mi km ) Precip ( " mm )
12:53 am 00:53 Cloudy 49 9.4 20 -6.7 32 32 NNW 7 11 30.09 1019 10 16 0.00 0.00
1:53 am 01:53 Cloudy 48 8.9 19 -7.2 32 32 Calm 30.10 1019 10 16 0.00 0.00
2:53 am 02:53 Cloudy 47 8.3 21 -6.1 36 36 Calm 30.09 1019 10 16 0.00 0.00
3:53 am 03:53 Cloudy 47 8.3 22 -5.6 37 37 N 6 9 30.08 1019 10 16 0.00 0.00
4:53 am 04:53 Cloudy 47 8.3 23 -5 39 39 N 6 9 30.09 1019 10 16 0.00 0.00
5:53 am 05:53 Cloudy 48 8.9 22 -5.6 36 36 Calm 30.11 1020 10 16 0.00 0.00
6:53 am 06:53 Cloudy 47 8.3 23 -5 39 39 N 5 7 30.12 1020 10 16 0.00 0.00
7:53 am 07:53 Cloudy 48 8.9 24 -4.4 39 39 NE 5 7 30.14 1021 10 16 0.00 0.00
8:53 am 08:53 Cloudy 51 10.6 23 -5 33 33 ENE 10 17 30.16 1021 10 16 0.00 0.00
9:53 am 09:53 Mostly Cloudy 53 11.7 21 -6.1 28 28 E 10 17 30.19 1022 10 16 0.00 0.00
10:53 am 10:53 Cloudy 51 10.6 20 -6.7 29 29 E 8 13 30.21 1023 10 16 0.00 0.00
11:53 am 11:53 Cloudy 51 10.6 17 -8.3 26 26 ENE 12 19 30.21 1023 10 16 0.00 0.00
12:53 pm 12:53 Cloudy 49 9.4 22 -5.6 35 35 E 9 15 30.21 1023 10 16 0.00 0.00
1:53 pm 13:53 Cloudy 50 10 25 -3.9 38 38 ENE 7 11 30.18 1022 10 16 0.00 0.00
2:53 pm 14:53 Cloudy 50 10 26 -3.3 39 39 E 7 11 30.17 1022 10 16 0.00 0.00
3:53 pm 15:53 Cloudy 53 11.7 28 -2.2 38 38 VRB 5 7 30.16 1021 10 16 0.00 0.00
4:53 pm 16:53 Sunny 54 12.2 27 -2.8 35 35 VRB 5 7 30.14 1021 10 16 0.00 0.00
5:53 pm 17:53 Sunny 54 12.2 27 -2.8 35 35 N 5 7 30.15 1021 10 16 0.00 0.00
6:53 pm 18:53 Clear 51 10.6 31 -0.6 46 46 Calm 30.15 1021 10 16 0.00 0.00
7:53 pm 19:53 Clear 48 8.9 27 -2.8 44 44 NNW 5 7 30.18 1022 10 16 0.00 0.00
8:53 pm 20:53 Clear 47 8.3 23 -5 39 39 NW 3 6 30.18 1022 10 16 0.00 0.00
9:53 pm 21:53 Clear 43 6.1 23 -5 45 45 S 3 6 30.20 1023 10 16 0.00 0.00
10:53 pm 22:53 Clear 39 3.9 25 -3.9 57 57 Calm 30.22 1023 10 16 0.00 0.00
11:53 pm 23:53 Clear 40 4.4 25 -3.9 55 55 Calm 30.22 1023 10 16 0.00 0.00

Powered by AerisWeather